This is the latest recevied weather packets stored in our database for station/object K3RUP-1. If no packets are shown the sender has not sent any weather packets the latest 10 day(s).
| Time | Temp. | Humidity | Pressure | Rain* | Wind** | Luminosity | Snow |
|---|---|---|---|---|---|---|---|
| 1777152212 | 11.11° C | 86% | 1012 hPa | 0 mm | - | 23 W/m² | - |
| 1777151907 | 11.11° C | 86% | 1011.7 hPa | 0 mm | - | 22 W/m² | - |
| 1777151603 | 11.11° C | 85% | 1011.6 hPa | 0 mm | - | 29 W/m² | - |
| 1777151300 | 11.11° C | 83% | 1011.9 hPa | 0 mm | - | 18 W/m² | - |
| 1777150995 | 11.67° C | 82% | 1011.6 hPa | 0 mm | - | 24 W/m² | - |
| 1777150690 | 11.67° C | 80% | 1012 hPa | 0 mm | - | 24 W/m² | - |
| 1777150386 | 11.67° C | 79% | 1011.9 hPa | 0 mm | - | 22 W/m² | - |
| 1777150083 | 11.67° C | 79% | 1012 hPa | 0 mm | - | 21 W/m² | - |
| 1777149778 | 11.67° C | 79% | 1012 hPa | 0 mm | - | 25 W/m² | - |
| 1777149475 | 12.22° C | 79% | 1011.9 hPa | 0 mm | - | 22 W/m² | - |
| 1777149171 | 12.22° C | 78% | 1012 hPa | 0 mm | - | 22 W/m² | - |
| 1777148870 | 12.22° C | 78% | 1011.9 hPa | 0 mm | - | 27 W/m² | - |
| 1777148569 | 12.22° C | 78% | 1011.8 hPa | 0 mm | - | 26 W/m² | - |
| 1777148264 | 12.22° C | 78% | 1011.8 hPa | 0 mm | - | 31 W/m² | - |
| 1777147961 | 12.22° C | 77% | 1012 hPa | 0 mm | - | 33 W/m² | - |
| 1777147657 | 12.78° C | 77% | 1011.6 hPa | 0 mm | - | 44 W/m² | - |
| 1777147352 | 12.78° C | 77% | 1011.7 hPa | 0 mm | - | 45 W/m² | - |
| 1777147047 | 12.78° C | 76% | 1011.7 hPa | 0 mm | - | 60 W/m² | - |
| 1777146744 | 13.33° C | 75% | 1011.6 hPa | 0 mm | - | 67 W/m² | - |
| 1777146440 | 13.33° C | 75% | 1011.7 hPa | 0 mm | - | 67 W/m² | - |
| 1777146137 | 13.33° C | 75% | 1011.8 hPa | 0 mm | - | 74 W/m² | - |
| 1777145837 | 13.33° C | 74% | 1012 hPa | 0 mm | - | 75 W/m² | - |
| 1777145534 | 13.89° C | 74% | 1011.8 hPa | 0 mm | - | 84 W/m² | - |
| 1777145228 | 13.89° C | 74% | 1011.7 hPa | 0 mm | - | 84 W/m² | - |
| 1777144924 | 13.89° C | 73% | 1011.9 hPa | 0 mm | - | 91 W/m² | - |
* Rain latest hour (hover to see other rain measurements)
** Current wind speed in m/s (hover to see current wind gust speed)